Paynesville, MN

3:12 AM CDT on May 21, 2018 (GMT -0500)
Paynesville

Weather History for KPEX - June, 2013

Change the Weather History Date:

Tuesday, June 11, 2013

  Actual Average (KLJF) Record (KLJF)
Temperature  
Mean Temperature 64 °F -  
Max Temperature 73 °F 79 °F 99 °F (1956)
Min Temperature 55 °F 57 °F 36 °F (1958)
Degree Days  
Heating Degree Days 2    
Growing Degree Days 14 (Base 50)    
Moisture  
Dew Point 60 °F    
Average Humidity 85    
Maximum Humidity 99    
Minimum Humidity 60    
Precipitation  
Precipitation 0.01 in - - ()
Sea Level Pressure  
Sea Level Pressure 29.88 in    
Wind  
Wind Speed 2 mph (North)    
Max Wind Speed 8 mph    
Max Gust Speed -    
Visibility 7 miles    
Events Rain , Thunderstorm    
Averages and records for this station are not official NWS values.
T = Trace of Precipitation, MM = Missing Value Source: NWS Daily Summary

Daily Weather History Graph

Daily Weather History Graph

Search for Another Location

Airport or City:

Astronomy

Jun. 11, 2013 Rise Set
Actual Time 5:30 AM CDT 9:07 PM CDT
Civil Twilight 4:52 AM CDT 9:44 PM CDT
Nautical Twilight 4:02 AM CDT 10:34 PM CDT
Astronomical Twilight 2:56 AM CDT 11:41 PM CDT
Moon 8:20 AM CDT (6/11) 11:03 PM CDT (6/11)
Length of Visible Light 16h 51m
Length of Day
15h 36m
Waxing Crescent, 8% of the Moon is Illuminated
Jun 11
Waxing Crescent
Jun 16
First Quarter
Jun 23
Full
Jun 29
Last Quarter
Jul 8
New

Hourly Weather History & Observations

Time (CDT) Temp. Dew Point Humidity Pressure Visibility Wind Dir Wind Speed Gust Speed Precip Events Conditions
12:13 AM 62.6 °F 59.5 °F 90% 29.85 in 7.0 mi SSE 3.5 mph - N/A   Clear
12:33 AM 62.1 °F 59.4 °F 91% 29.85 in 7.0 mi SSE 4.6 mph - N/A   Clear
12:53 AM 62.1 °F 59.4 °F 91% 29.85 in 7.0 mi Calm Calm - N/A   Clear
1:13 AM 61.2 °F 58.6 °F 91% 29.85 in 7.0 mi Calm Calm - N/A   Clear
1:33 AM 61.0 °F 59.4 °F 94% 29.85 in 7.0 mi Calm Calm - N/A   Clear
1:53 AM 58.5 °F 57.2 °F 96% 29.85 in 4.0 mi Calm Calm - N/A   Clear
2:13 AM 58.1 °F 56.8 °F 96% 29.84 in 4.0 mi Calm Calm - N/A   Clear
2:33 AM 57.4 °F 56.3 °F 96% 29.84 in 2.5 mi Calm Calm - N/A   Clear
2:53 AM 57.2 °F 56.3 °F 97% 29.84 in 3.0 mi Calm Calm - N/A   Clear
3:13 AM 58.1 °F 57.2 °F 97% 29.84 in 4.0 mi Calm Calm - N/A   Clear
3:33 AM 58.3 °F 57.6 °F 97% 29.85 in 4.0 mi Calm Calm - N/A   Clear
3:53 AM 57.9 °F 57.0 °F 97% 29.84 in 3.0 mi Calm Calm - N/A   Clear
4:13 AM 59.0 °F 58.3 °F 97% 29.85 in 5.0 mi Calm Calm - N/A   Clear
4:33 AM 55.9 °F 54.9 °F 96% 29.87 in 2.5 mi Calm Calm - N/A   Clear
4:53 AM 55.8 °F 55.2 °F 98% 29.86 in 4.0 mi Calm Calm - N/A   Clear
5:12 AM 56.1 °F 55.4 °F 97% 29.87 in 3.0 mi Calm Calm - N/A   Clear
5:33 AM 57.2 °F 56.3 °F 97% 29.87 in 4.0 mi Calm Calm - N/A   Clear
5:53 AM 56.7 °F 55.9 °F 97% 29.88 in 2.5 mi Calm Calm - N/A   Clear
6:13 AM 56.7 °F 55.9 °F 97% 29.88 in 2.0 mi Calm Calm - N/A   Clear
6:33 AM 58.5 °F 58.1 °F 99% 29.85 in 3.0 mi Calm Calm - N/A   Clear
6:53 AM 60.1 °F 59.4 °F 97% 29.85 in 3.0 mi Calm Calm - N/A   Clear
7:13 AM 60.1 °F 59.2 °F 97% 29.85 in 2.5 mi East 5.8 mph - N/A Rain Light Rain
7:33 AM 61.0 °F 60.1 °F 97% 29.83 in 2.5 mi SE 6.9 mph - N/A   Scattered Clouds
7:53 AM 61.2 °F 60.1 °F 96% 29.86 in 3.0 mi Calm Calm - N/A   Clear
8:13 AM 62.1 °F 60.8 °F 96% 29.90 in 3.0 mi NNW 5.8 mph - N/A   Mostly Cloudy
8:33 AM 62.4 °F 60.8 °F 94% 29.95 in 4.0 mi WNW 4.6 mph - N/A Rain Light Rain
8:53 AM 62.6 °F 60.8 °F 94% 29.92 in 3.0 mi Calm Calm - 0.01 in Rain Light Rain
9:13 AM 62.4 °F 61.0 °F 95% 29.90 in 2.5 mi Calm Calm - N/A Rain Light Rain
9:32 AM 62.6 °F 61.2 °F 95% 29.89 in 3.0 mi Calm Calm - N/A   Scattered Clouds
9:53 AM 63.5 °F 61.9 °F 94% 29.92 in 3.0 mi West 4.6 mph - N/A   Clear
10:13 AM 63.5 °F 61.7 °F 94% 29.90 in 4.0 mi Calm Calm - N/A   Clear
10:33 AM 65.1 °F 62.8 °F 92% 29.89 in 4.0 mi Calm Calm - N/A   Clear
10:53 AM 68.4 °F 63.3 °F 84% 29.90 in 10.0 mi Calm Calm - N/A   Clear
11:13 AM 69.3 °F 62.4 °F 79% 29.87 in 10.0 mi NE 3.5 mph - N/A   Clear
11:33 AM 69.8 °F 62.8 °F 78% 29.86 in 10.0 mi NE 5.8 mph - N/A   Clear
11:53 AM 69.3 °F 62.6 °F 79% 29.87 in 7.0 mi NNE 4.6 mph - N/A   Clear
12:13 PM 71.1 °F 63.3 °F 76% 29.85 in 5.0 mi NE 6.9 mph - N/A   Haze
12:33 PM 71.4 °F 62.8 °F 74% 29.88 in 7.0 mi NNE 8.1 mph - N/A   Clear
12:53 PM 71.6 °F 61.3 °F 70% 29.91 in 10.0 mi Calm Calm - N/A   Clear
1:13 PM 71.6 °F 61.7 °F 71% 29.91 in 10.0 mi Calm Calm - N/A   Clear
1:33 PM 70.9 °F 61.9 °F 73% 29.84 in 10.0 mi NE 5.8 mph - N/A Rain , Thunderstorm Light Thunderstorms and Rain
1:52 PM 71.6 °F 63.0 °F 74% 29.91 in 10.0 mi North 4.6 mph - N/A   Scattered Clouds
2:13 PM 72.9 °F 62.1 °F 69% 29.87 in 10.0 mi NNE 5.8 mph - N/A Thunderstorm Scattered Clouds
2:33 PM 71.6 °F 62.1 °F 72% 29.86 in 10.0 mi NNE 6.9 mph - N/A   Scattered Clouds
2:53 PM 71.2 °F 61.3 °F 71% 29.86 in 10.0 mi NE 4.6 mph - N/A Rain Light Rain
3:13 PM 70.7 °F 61.7 °F 73% 29.91 in 10.0 mi NW 6.9 mph - N/A Rain Light Rain
3:33 PM 69.8 °F 62.1 °F 76% 29.91 in 7.0 mi Calm Calm - N/A Rain Light Rain
3:52 PM 68.9 °F 61.2 °F 76% 29.89 in 10.0 mi Calm Calm - N/A   Clear
4:13 PM 69.4 °F 62.2 °F 78% 29.84 in 10.0 mi East 5.8 mph - N/A   Clear
4:33 PM 69.8 °F 62.4 °F 77% 29.90 in 10.0 mi WNW 4.6 mph - N/A   Clear
4:53 PM 70.2 °F 62.8 °F 77% 29.92 in 10.0 mi WNW 5.8 mph - N/A Thunderstorm Thunderstorm
5:13 PM 70.0 °F 62.8 °F 78% 29.92 in 10.0 mi NW 3.5 mph - N/A   Clear
5:33 PM 71.1 °F 63.1 °F 76% 29.91 in 10.0 mi NW 6.9 mph - N/A   Clear
5:53 PM 72.7 °F 60.3 °F 65% 29.91 in 10.0 mi NW 4.6 mph - N/A   Clear
6:13 PM 72.0 °F 57.6 °F 60% 29.91 in 10.0 mi Calm Calm - N/A   Scattered Clouds
6:33 PM 72.5 °F 58.1 °F 60% 29.89 in 10.0 mi Calm Calm - N/A   Scattered Clouds
6:52 PM 71.6 °F 58.3 °F 63% 29.90 in 10.0 mi Calm Calm - N/A   Mostly Cloudy
7:13 PM 71.6 °F 58.6 °F 64% 29.89 in 10.0 mi Calm Calm - N/A   Scattered Clouds
7:33 PM 70.5 °F 57.2 °F 63% 29.88 in 10.0 mi Calm Calm - N/A   Clear
7:53 PM 70.0 °F 58.1 °F 66% 29.88 in 10.0 mi Calm Calm - N/A   Clear
8:12 PM 68.9 °F 59.7 °F 72% 29.88 in 10.0 mi Calm Calm - N/A   Clear
8:33 PM 68.0 °F 59.5 °F 74% 29.87 in 10.0 mi Calm Calm - N/A   Clear
8:53 PM 67.1 °F 58.5 °F 74% 29.88 in 10.0 mi Calm Calm - N/A   Mostly Cloudy
9:13 PM 66.6 °F 58.6 °F 76% 29.89 in 10.0 mi Calm Calm - N/A   Overcast
9:33 PM 64.4 °F 58.6 °F 82% 29.89 in 10.0 mi Calm Calm - N/A   Overcast
9:53 PM 63.7 °F 59.9 °F 87% 29.90 in 10.0 mi Calm Calm - N/A   Mostly Cloudy
10:13 PM 62.1 °F 58.1 °F 87% 29.91 in 10.0 mi Calm Calm - N/A   Scattered Clouds
10:33 PM 61.7 °F 58.1 °F 88% 29.91 in 10.0 mi Calm Calm - N/A   Clear
10:53 PM 59.9 °F 57.6 °F 92% 29.91 in 10.0 mi Calm Calm - N/A   Clear
11:13 PM 59.4 °F 57.6 °F 94% 29.89 in 10.0 mi Calm Calm - N/A   Clear
11:33 PM 60.3 °F 58.1 °F 93% 29.89 in 10.0 mi Calm Calm - N/A Thunderstorm Scattered Clouds
11:53 PM 59.7 °F 58.1 °F 94% 29.91 in 10.0 mi Calm Calm - N/A   Mostly Cloudy